• In Slovakia
  • List of Countries
  • For 7 days
  • Water Temperature
  • Satellite Maps
  • Weather Map
  • Weather Widgets
  • user-avatar
    Login

    Hourly Weather Yerevan

    Today, 14 August, Tuesday

    Time Temperature Precipitation Wind Pressure Humidity
    00:00 +22°C° 0 mm 3 mps 688 mmHg 67%
    01:00 +21°C° 0 mm 3 mps 688 mmHg 69%
    02:00 +21°C° 0 mm 3 mps 687 mmHg 70%
    03:00 +21°C° 0 mm 3 mps 687 mmHg 73%
    04:00 +21°C° 0 mm 3 mps 687 mmHg 73%
    05:00 +21°C° 0 mm 3 mps 688 mmHg 73%
    06:00 +21°C° 0 mm 3 mps 688 mmHg 72%
    07:00 +24°C° 0 mm 2 mps 688 mmHg 66%
    08:00 +25°C° 0 mm 2 mps 688 mmHg 59%
    09:00 +27°C° 0 mm 2 mps 688 mmHg 52%
    10:00 +28°C° 0 mm 3 mps 688 mmHg 49%
    11:00 +29°C° 0 mm 3 mps 688 mmHg 45%
    12:00 +30°C° 0 mm 3 mps 688 mmHg 42%
    13:00 +31°C° 0.3 mm 3 mps 688 mmHg 41%
    14:00 +31°C° 0.3 mm 3 mps 688 mmHg 40%
    15:00 +32°C° 0.3 mm 4 mps 688 mmHg 40%
    16:00 +30°C° 0.4 mm 4 mps 687 mmHg 43%
    17:00 +29°C° 0.4 mm 5 mps 687 mmHg 46%
    18:00 +28°C° 0.4 mm 5 mps 687 mmHg 49%
    19:00 +27°C° 0.1 mm 4 mps 688 mmHg 55%
    20:00 +25°C° 0.1 mm 3 mps 688 mmHg 60%
    21:00 +24°C° 0.1 mm 3 mps 688 mmHg 65%
    22:00 +22°C° 0 mm 3 mps 688 mmHg 66%
    23:00 +23°C° 0 mm 2 mps 689 mmHg 68%

    Tomorrow, 15 August, Wednesday

    Time Temperature Precipitation Wind Pressure Humidity
    00:00 +21°C° 0 mm 2 mps 689 mmHg 69%
    01:00 +21°C° 0.1 mm 2 mps 689 mmHg 70%
    02:00 +21°C° 0.1 mm 2 mps 688 mmHg 71%
    03:00 +20°C° 0.1 mm 2 mps 688 mmHg 72%
    04:00 +20°C° 0.1 mm 2 mps 688 mmHg 72%
    05:00 +20°C° 0.1 mm 2 mps 689 mmHg 72%
    06:00 +20°C° 0.1 mm 2 mps 689 mmHg 72%
    07:00 +23°C° 0 mm 2 mps 689 mmHg 65%
    08:00 +25°C° 0 mm 2 mps 689 mmHg 58%
    09:00 +27°C° 0 mm 2 mps 689 mmHg 51%
    10:00 +28°C° 0.1 mm 2 mps 689 mmHg 47%
    11:00 +29°C° 0.1 mm 2 mps 689 mmHg 44%
    12:00 +30°C° 0.1 mm 2 mps 689 mmHg 40%
    13:00 +31°C° 0.2 mm 2 mps 689 mmHg 39%
    14:00 +33°C° 0.2 mm 3 mps 688 mmHg 38%
    15:00 +33°C° 0.2 mm 3 mps 688 mmHg 36%
    16:00 +33°C° 0.2 mm 3 mps 688 mmHg 38%
    17:00 +31°C° 0.2 mm 3 mps 688 mmHg 40%
    18:00 +30°C° 0.2 mm 4 mps 688 mmHg 42%
    19:00 +28°C° 0.2 mm 3 mps 688 mmHg 48%
    20:00 +27°C° 0.2 mm 3 mps 689 mmHg 54%
    21:00 +25°C° 0.2 mm 3 mps 689 mmHg 59%
    22:00 +24°C° 0 mm 2 mps 689 mmHg 60%
    23:00 +24°C° 0 mm 2 mps 689 mmHg 61%

    Day after tomorrow, 16 August, Thursday

    Time Temperature Precipitation Wind Pressure Humidity
    00:00 +23°C° 0 mm 2 mps 690 mmHg 62%
    01:00 +23°C° 0 mm 2 mps 689 mmHg 63%
    02:00 +23°C° 0 mm 2 mps 689 mmHg 63%
    03:00 +21°C° 0 mm 2 mps 689 mmHg 64%
    04:00 +21°C° 0 mm 2 mps 689 mmHg 63%
    05:00 +21°C° 0 mm 2 mps 689 mmHg 63%
    06:00 +23°C° 0 mm 2 mps 690 mmHg 63%
    07:00 +25°C° 0 mm 2 mps 690 mmHg 55%
    08:00 +27°C° 0 mm 1 mps 690 mmHg 47%
    09:00 +29°C° 0 mm 1 mps 690 mmHg 39%
    10:00 +31°C° 0 mm 2 mps 690 mmHg 36%
    11:00 +32°C° 0 mm 2 mps 690 mmHg 32%
    12:00 +35°C° 0 mm 3 mps 689 mmHg 28%
    13:00 +35°C° 0 mm 3 mps 689 mmHg 27%
    14:00 +36°C° 0 mm 3 mps 689 mmHg 25%
    15:00 +37°C° 0 mm 3 mps 688 mmHg 24%
    16:00 +36°C° 0 mm 3 mps 688 mmHg 26%
    17:00 +35°C° 0 mm 2 mps 688 mmHg 29%
    18:00 +35°C° 0 mm 2 mps 688 mmHg 31%
    19:00 +32°C° 0 mm 2 mps 688 mmHg 38%
    20:00 +30°C° 0 mm 2 mps 689 mmHg 45%
    21:00 +28°C° 0 mm 3 mps 689 mmHg 52%
    22:00 +27°C° 0 mm 2 mps 689 mmHg 54%
    23:00 +26°C° 0 mm 2 mps 689 mmHg 56%

    17 August, Friday

    Time Temperature Precipitation Wind Pressure Humidity
    00:00 +26°C° 0 mm 2 mps 689 mmHg 57%
    01:00 +25°C° 0 mm 2 mps 688 mmHg 58%
    02:00 +25°C° 0 mm 2 mps 688 mmHg 58%
    03:00 +24°C° 0 mm 2 mps 688 mmHg 58%
    04:00 +24°C° 0 mm 2 mps 688 mmHg 58%
    05:00 +25°C° 0 mm 1 mps 688 mmHg 57%
    06:00 +25°C° 0 mm 1 mps 688 mmHg 56%
    07:00 +27°C° 0 mm 1 mps 689 mmHg 48%
    08:00 +29°C° 0 mm 1 mps 689 mmHg 41%
    09:00 +32°C° 0 mm 1 mps 689 mmHg 33%
    10:00 +33°C° 0 mm 1 mps 689 mmHg 30%
    11:00 +36°C° 0 mm 2 mps 688 mmHg 26%
    12:00 +37°C° 0 mm 2 mps 688 mmHg 23%
    13:00 +38°C° 0 mm 2 mps 688 mmHg 22%
    14:00 +38°C° 0 mm 2 mps 687 mmHg 20%
    15:00 +39°C° 0 mm 2 mps 687 mmHg 19%
    16:00 +38°C° 0 mm 2 mps 687 mmHg 22%
    17:00 +37°C° 0 mm 2 mps 687 mmHg 25%
    18:00 +36°C° 0 mm 2 mps 686 mmHg 27%
    19:00 +34°C° 0 mm 2 mps 687 mmHg 34%
    20:00 +31°C° 0 mm 2 mps 687 mmHg 41%
    21:00 +29°C° 0 mm 3 mps 687 mmHg 48%
    22:00 +28°C° 0 mm 3 mps 687 mmHg 50%
    23:00 +28°C° 0 mm 3 mps 687 mmHg 52%

    18 August, Saturday

    Time Temperature Precipitation Wind Pressure Humidity
    00:00 +27°C° 0 mm 3 mps 687 mmHg 54%
    01:00 +26°C° 0 mm 3 mps 686 mmHg 55%
    02:00 +26°C° 0 mm 2 mps 686 mmHg 56%
    03:00 +25°C° 0 mm 2 mps 686 mmHg 57%
    04:00 +25°C° 0 mm 2 mps 686 mmHg 57%
    05:00 +25°C° 0 mm 2 mps 686 mmHg 58%
    06:00 +25°C° 0 mm 2 mps 686 mmHg 59%
    07:00 +27°C° 0 mm 2 mps 686 mmHg 52%
    08:00 +29°C° 0 mm 2 mps 686 mmHg 45%
    09:00 +31°C° 0 mm 2 mps 686 mmHg 38%
    10:00 +32°C° 0.1 mm 2 mps 686 mmHg 34%
    11:00 +35°C° 0.1 mm 2 mps 686 mmHg 31%
    12:00 +36°C° 0.1 mm 2 mps 685 mmHg 28%
    13:00 +36°C° 0.1 mm 2 mps 685 mmHg 27%
    14:00 +37°C° 0.1 mm 2 mps 685 mmHg 26%
    15:00 +37°C° 0.1 mm 3 mps 684 mmHg 25%
    16:00 +36°C° 0.2 mm 3 mps 684 mmHg 28%
    17:00 +35°C° 0.2 mm 4 mps 684 mmHg 31%
    18:00 +34°C° 0.2 mm 4 mps 685 mmHg 34%
    19:00 +32°C° 0.1 mm 4 mps 685 mmHg 40%
    20:00 +29°C° 0.1 mm 4 mps 685 mmHg 45%
    21:00 +28°C° 0.1 mm 3 mps 686 mmHg 51%
    22:00 +27°C° 0.1 mm 3 mps 686 mmHg 53%
    23:00 +26°C° 0.1 mm 3 mps 686 mmHg 55%

    19 August, Sunday

    Time Temperature Precipitation Wind Pressure Humidity
    00:00 +25°C° 0.1 mm 3 mps 686 mmHg 58%
    01:00 +25°C° 0.1 mm 3 mps 686 mmHg 60%
    02:00 +24°C° 0.1 mm 2 mps 686 mmHg 62%
    03:00 +24°C° 0.1 mm 2 mps 686 mmHg 64%
    04:00 +24°C° 0.1 mm 2 mps 686 mmHg 64%
    05:00 +23°C° 0.1 mm 2 mps 686 mmHg 64%
    06:00 +23°C° 0.1 mm 2 mps 686 mmHg 65%
    07:00 +25°C° 0.1 mm 2 mps 686 mmHg 57%
    08:00 +27°C° 0.1 mm 2 mps 686 mmHg 50%
    09:00 +29°C° 0.1 mm 2 mps 686 mmHg 43%
    10:00 +31°C° 0.2 mm 2 mps 686 mmHg 39%
    11:00 +32°C° 0.2 mm 2 mps 686 mmHg 35%
    12:00 +34°C° 0.2 mm 3 mps 685 mmHg 31%
    13:00 +35°C° 0.1 mm 3 mps 685 mmHg 31%
    14:00 +35°C° 0.1 mm 3 mps 685 mmHg 30%
    15:00 +36°C° 0.1 mm 3 mps 685 mmHg 29%
    16:00 +35°C° 0.4 mm 3 mps 685 mmHg 32%
    17:00 +34°C° 0.4 mm 3 mps 685 mmHg 35%
    18:00 +33°C° 0.4 mm 3 mps 685 mmHg 38%
    19:00 +30°C° 0.3 mm 3 mps 685 mmHg 42%
    20:00 +29°C° 0.3 mm 3 mps 686 mmHg 47%
    21:00 +27°C° 0.3 mm 3 mps 686 mmHg 52%
    22:00 +26°C° 0.2 mm 3 mps 686 mmHg 54%
    23:00 +26°C° 0.2 mm 3 mps 686 mmHg 57%
    Show more